Weather in Semenivka

Ukraine / Kharkiv Region     48°54′00″N   36°44′55″E
temp.,
°C
wind,
m/s
gust,
m/s
humid.,
%
clouds,
%
prec.,
mm/h
press.,
hPa
HPBL,
m
12 may, wed
wed1200:00+7ene61189100 0.0 1015647
03:00+7e71292100 0.4 1015688
06:00+7e81288100 0.1 1016942
09:00+8e81286100 0.3 10171074
12:00+9e71184100 0.4 10161127
15:00+8e6129081 4.8 1015826
18:00+12se69755 1.6 10131010
21:00+8se410925 2.3 1014173
13 may, thu
thu1300:00+7sse49962 0.0 1014185
03:00+6se3596100 0.0 1015101
06:00+7se349473 0.0 101586
09:00+12se247999 0.0 1015401
12:00+18sse36609 0.0 10141234
15:00+20s465233 0.0 10131764
18:00+21s2459100 0.0 10131208
21:00+15ene337487 0.0 101329
14 may, fri
fri1400:00+14ese338296 0.0 101333
03:00+13ese368999 0.0 101295
06:00+14ese310915 0.4 1012209
09:00+20se696819 0.4 1011607
12:00+24sse6757100 0.0 10111048
15:00+26sse4649100 0.0 10101519
18:00+24se4765100 0.0 1010239
21:00+19sse487487 0.0 1010139
15 may, sat
sat1500:00+17sw338343 0.0 101038
03:00+15wsw337898 0.0 101142
06:00+15ssw238034 0.0 101251
09:00+20wsw4562100 0.0 1012494
12:00+23sw344897 0.0 10121241
15:00+24sw464582 0.0 10122424
18:00+21wsw2259100 0.0 101223
21:00+18w23686 0.0 101219
16 may, sun
sun1600:00+16n226794 0.0 101211
03:00+15nne227214 0.0 101312
06:00+15ne3479100 0.0 101279
09:00+21ene5763100 0.0 1012460
12:00+25ene6854100 0.0 10111182
15:00+26ene7953100 0.0 10091516
18:00+24ene61064100 0.0 1007583
21:00+19ene5146981 0.0 1006247